FW0880 Weather Reports


Display with metric or nautical units.
time (UTC)temp
F
wind
direction
speed
MPH
gust
MPH
rain 1hr
in
rain 24hr
in
rain mn
in
humidity
%
barometer
mb
20260503200620 87 185 5.0 11.0 0.00 0.00 0.00 72 1010.1
20260503200043 87 223 5.0 11.0 0.00 0.00 0.00 72 1010.2
20260503195522 87 250 5.0 13.0 0.00 0.00 0.00 71 1010.1
20260503195048 87 220 5.0 13.0 0.00 0.00 0.00 71 1010.2
20260503194607 88 238 7.0 12.0 0.00 0.00 0.00 70 1010.2
20260503194007 88 267 4.0 12.0 0.00 0.00 0.00 70 1010.2
20260503193527 88 232 4.0 12.0 0.00 0.00 0.00 69 1010.2
20260503193107 88 156 4.0 12.0 0.00 0.00 0.00 69 1010.3
20260503192614 88 259 6.0 10.0 0.00 0.00 0.00 69 1010.3
20260503192005 89 250 5.0 10.0 0.00 0.00 0.00 68 1010.3
20260503191521 89 174 5.0 10.0 0.00 0.00 0.00 67 1010.3
20260503191054 89 275 6.0 12.0 0.00 0.00 0.00 67 1010.2
20260503190612 89 180 6.0 10.0 0.00 0.00 0.00 66 1010.3
20260503190014 90 175 4.0 11.0 0.00 0.00 0.00 66 1010.4
20260503185528 89 223 4.0 11.0 0.00 0.00 0.00 67 1010.5
20260503185100 90 202 4.0 9.0 0.00 0.00 0.00 66 1010.5
20260503184617 89 194 3.0 9.0 0.00 0.00 0.00 67 1010.5
20260503184016 89 200 3.0 9.0 0.00 0.00 0.00 67 1010.6
20260503183535 89 205 5.0 10.0 0.00 0.00 0.00 66 1010.5
20260503183112 89 205 4.0 9.0 0.00 0.00 0.00 67 1010.6
20260503182516 89 244 4.0 8.0 0.00 0.00 0.00 66 1010.8
20260503182059 88 196 4.0 8.0 0.00 0.00 0.00 67 1010.8
20260503181614 88 226 4.0 9.0 0.00 0.00 0.00 69 1010.9
20260503181007 88 229 4.0 9.0 0.00 0.00 0.00 67 1011.0
20260503180526 88 190 4.0 9.0 0.00 0.00 0.00 67 1011.0
20260503180053 88 177 4.0 9.0 0.00 0.00 0.00 67 1011.1
20260503175604 88 229 3.0 8.0 0.00 0.00 0.00 68 1011.1
20260503175008 87 244 4.0 8.0 0.00 0.00 0.00 68 1011.1
20260503174528 87 192 4.0 8.0 0.00 0.00 0.00 69 1011.1
20260503174050 86 287 3.0 8.0 0.00 0.00 0.00 68 1011.1
20260503173606 86 227 5.0 9.0 0.00 0.00 0.00 68 1011.2
20260503173021 87 208 4.0 9.0 0.00 0.00 0.00 68 1011.2
20260503172540 87 253 5.0 7.0 0.00 0.00 0.00 67 1011.2
20260503172104 87 263 3.0 7.0 0.00 0.00 0.00 68 1011.3
20260503171622 87 240 3.0 7.0 0.00 0.00 0.00 68 1011.3
20260503171010 87 222 4.0 7.0 0.00 0.00 0.00 68 1011.3
20260503170528 87 198 3.0 6.0 0.00 0.00 0.00 68 1011.3
20260503150625 83 321 1.0 5.0 0.00 0.00 0.00 65 1011.3
20260503131103 77 5 2.0 3.0 0.00 0.00 0.00 81 1010.2
20260503130623 77 98 0.0 1.0 0.00 0.00 0.00 81 1010.0
20260503110526 78 98 0.0 3.0 0.00 0.00 0.00 80 1008.6
20260503081536 81 121 0.0 2.0 0.00 0.00 0.00 77 1008.6
20260503081105 81 121 0.0 2.0 0.00 0.00 0.00 77 1008.6
20260503080622 81 121 0.0 2.0 0.00 0.00 0.00 77 1008.6
20260503072623 81 124 0.0 3.0 0.00 0.00 0.00 78 1009.0
20260503072016 81 124 1.0 3.0 0.00 0.00 0.00 78 1009.1
20260503071534 81 126 1.0 3.0 0.00 0.00 0.00 78 1009.0
20260503071113 81 116 0.0 3.0 0.00 0.00 0.00 78 1009.1
20260503070623 81 109 1.0 3.0 0.00 0.00 0.00 78 1009.1
20260503055055 82 186 1.0 5.0 0.00 0.00 0.00 80 1009.4
20260503054614 81 199 2.0 5.0 0.00 0.00 0.00 80 1009.5
20260503054022 81 177 3.0 5.0 0.00 0.00 0.00 81 1009.5
20260503053541 81 167 2.0 5.0 0.00 0.00 0.00 81 1009.5
20260503053127 81 178 2.0 4.0 0.00 0.00 0.00 81 1009.5
20260503052515 81 185 2.0 4.0 0.00 0.00 0.00 81 1009.5
20260503052105 81 155 2.0 5.0 0.00 0.00 0.00 81 1009.5
20260503051624 81 181 3.0 5.0 0.00 0.00 0.00 81 1009.4
20260503051134 81 220 2.0 5.0 0.00 0.00 0.00 82 1009.4
20260503050525 81 229 2.0 5.0 0.00 0.00 0.00 82 1009.4
20260503050045 82 225 2.0 5.0 0.00 0.00 0.00 82 1009.3
20260503045608 81 194 2.0 5.0 0.00 0.00 0.00 82 1009.3
20260503045131 81 178 2.0 4.0 0.00 0.00 0.00 82 1009.3
20260503044521 81 213 1.0 4.0 0.00 0.00 0.00 82 1009.3
20260503044111 81 213 1.0 4.0 0.00 0.00 0.00 82 1009.3
20260503043625 81 211 2.0 5.0 0.00 0.00 0.00 82 1009.2
20260503043042 81 195 1.0 5.0 0.00 0.00 0.00 82 1009.1
20260503042614 81 197 1.0 5.0 0.00 0.00 0.00 82 1009.1
20260503042017 81 222 2.0 5.0 0.00 0.00 0.00 82 1009.1
20260503041539 81 217 3.0 5.0 0.00 0.00 0.00 82 1009.0
20260503041055 81 205 3.0 5.0 0.00 0.00 0.00 81 1008.9
20260503040613 81 236 1.0 5.0 0.00 0.00 0.00 81 1009.0
20260503040013 81 198 2.0 5.0 0.00 0.00 0.00 81 1008.9
20260503035530 82 221 2.0 4.0 0.00 0.00 0.00 81 1008.8
20260503035101 82 204 1.0 4.0 0.00 0.00 0.00 81 1008.8
20260503034614 82 240 1.0 4.0 0.00 0.00 0.00 81 1008.7
20260503034005 82 196 0.0 4.0 0.00 0.00 0.00 81 1008.7
20260503033528 82 196 2.0 4.0 0.00 0.00 0.00 81 1008.5
20260503033109 82 212 1.0 3.0 0.00 0.00 0.00 81 1008.5
20260503032609 82 246 0.0 3.0 0.00 0.00 0.00 81 1008.3
20260503032022 82 265 1.0 3.0 0.00 0.00 0.00 81 1008.3
20260503031550 82 265 0.0 4.0 0.00 0.00 0.00 81 1008.2
20260503031105 82 265 1.0 4.0 0.00 0.00 0.00 81 1008.1
20260503030617 82 252 1.0 3.0 0.00 0.00 0.00 81 1008.1
20260503030011 82 252 2.0 4.0 0.00 0.00 0.00 81 1007.9
20260503025531 82 242 1.0 4.0 0.00 0.00 0.00 81 1007.8
20260503025057 82 260 1.0 4.0 0.00 0.00 0.00 81 1007.7
20260503024625 82 259 1.0 4.0 0.00 0.00 0.00 81 1007.6
20260503024002 82 197 1.0 3.0 0.00 0.00 0.00 81 1007.7
20260503023517 82 198 1.0 3.0 0.00 0.00 0.00 80 1007.6
20260503023120 82 196 1.0 3.0 0.00 0.00 0.00 80 1007.5
20260503022623 82 192 1.0 4.0 0.00 0.00 0.00 80 1007.5
20260503022019 82 188 1.0 5.0 0.00 0.00 0.00 80 1007.4
20260503021541 82 184 2.0 4.0 0.00 0.00 0.00 80 1007.3
20260503021053 82 238 2.0 7.0 0.00 0.00 0.00 80 1007.2
20260503020614 82 254 2.0 8.0 0.00 0.00 0.00 80 1007.2
20260503020011 82 169 3.0 7.0 0.00 0.00 0.00 80 1007.2
20260503015527 82 227 3.0 8.0 0.00 0.00 0.00 80 1007.2
20260503015042 82 240 2.0 8.0 0.00 0.00 0.00 80 1007.1
20260503014605 82 211 3.0 8.0 0.00 0.00 0.00 79 1007.0
20260503014009 82 185 5.0 8.0 0.00 0.00 0.00 79 1007.0
20260503013531 82 188 4.0 6.0 0.00 0.00 0.00 79 1007.0
20260503013057 82 196 3.0 6.0 0.00 0.00 0.00 79 1007.0
20260503012617 83 197 2.0 9.0 0.00 0.00 0.00 79 1007.1
20260503012013 83 190 5.0 9.0 0.00 0.00 0.00 79 1007.1
20260503011537 83 226 4.0 8.0 0.00 0.00 0.00 79 1007.1
20260503011115 83 196 2.0 7.0 0.00 0.00 0.00 79 1007.1
20260503010519 83 241 2.0 7.0 0.00 0.00 0.00 80 1007.0
20260503010044 83 218 2.0 7.0 0.00 0.00 0.00 80 1007.0
20260503005619 83 288 2.0 9.0 0.00 0.00 0.00 80 1006.9
20260503005015 83 265 3.0 9.0 0.00 0.00 0.00 80 1006.9
20260503004529 84 213 2.0 8.0 0.00 0.00 0.00 80 1006.9
20260503004102 84 261 1.0 9.0 0.00 0.00 0.00 79 1006.8
20260503003618 84 43 2.0 9.0 0.00 0.00 0.00 79 1006.6
20260503003011 84 240 2.0 8.0 0.00 0.00 0.00 79 1006.7
20260503002531 84 252 3.0 8.0 0.00 0.00 0.00 78 1006.7
20260503002101 84 198 2.0 8.0 0.00 0.00 0.00 78 1006.6
20260503001621 84 171 4.0 10.0 0.00 0.00 0.00 78 1006.6
20260503001005 84 207 4.0 10.0 0.00 0.00 0.00 77 1006.5
20260503000526 84 157 3.0 8.0 0.00 0.00 0.00 77 1006.6
20260503000038 84 245 3.0 8.0 0.00 0.00 0.00 77 1006.5
20260502235624 85 268 2.0 8.0 0.00 0.00 0.00 76 1006.6
20260502235043 85 254 3.0 7.0 0.00 0.00 0.00 77 1006.5
20260502234617 85 223 3.0 11.0 0.00 0.00 0.00 77 1006.5
20260502234013 85 273 4.0 12.0 0.00 0.00 0.00 76 1006.4
20260502233534 85 217 5.0 12.0 0.00 0.00 0.00 76 1006.4
20260502233111 85 264 4.0 12.0 0.00 0.00 0.00 76 1006.4
20260502232623 85 249 4.0 10.0 0.00 0.00 0.00 75 1006.3
20260502231613 85 198 6.0 13.0 0.00 0.00 0.00 75 1006.2
20260502231006 85 173 6.0 12.0 0.00 0.00 0.00 75 1006.3
20260502230524 85 219 6.0 10.0 0.00 0.00 0.00 75 1006.4
20260502230053 86 194 6.0 10.0 0.00 0.00 0.00 73 1006.5
20260502225614 86 215 6.0 12.0 0.00 0.00 0.00 73 1006.6
20260502225009 86 201 4.0 12.0 0.00 0.00 0.00 73 1006.6
20260502224530 87 165 5.0 9.0 0.00 0.00 0.00 71 1006.6
20260502224102 88 243 3.0 7.0 0.00 0.00 0.00 71 1006.6
20260502223619 88 239 4.0 7.0 0.00 0.00 0.00 71 1006.6
20260502223003 88 239 3.0 11.0 0.00 0.00 0.00 71 1006.7
20260502222527 88 217 5.0 11.0 0.00 0.00 0.00 70 1006.8
20260502222056 88 257 4.0 11.0 0.00 0.00 0.00 70 1006.8
20260502221620 88 203 5.0 11.0 0.00 0.00 0.00 70 1006.8
20260502221036 88 192 4.0 10.0 0.00 0.00 0.00 69 1006.8
20260502220559 88 206 4.0 10.0 0.00 0.00 0.00 69 1006.9
20260502220007 88 218 5.0 10.0 0.00 0.00 0.00 69 1006.9
20260502215531 88 210 3.0 15.0 0.00 0.00 0.00 69 1006.9
20260502215056 88 184 6.0 15.0 0.00 0.00 0.00 69 1007.0
20260502214619 89 201 5.0 11.0 0.00 0.00 0.00 69 1006.9
20260502214008 89 178 4.0 9.0 0.00 0.00 0.00 69 1007.0
20260502213527 89 221 3.0 10.0 0.00 0.00 0.00 70 1007.1
20260502213105 88 245 4.0 9.0 0.00 0.00 0.00 69 1007.1
20260502212626 88 251 4.0 10.0 0.00 0.00 0.00 70 1007.2
20260502212047 88 290 6.0 11.0 0.00 0.00 0.00 69 1007.2
20260502211609 88 257 5.0 9.0 0.00 0.00 0.00 69 1007.2
20260502211020 88 187 5.0 12.0 0.00 0.00 0.00 69 1007.2
20260502210530 88 175 6.0 12.0 0.00 0.00 0.00 69 1007.2
20260502210044 88 205 6.0 11.0 0.00 0.00 0.00 70 1007.3
20260502205619 87 173 4.0 11.0 0.00 0.00 0.00 70 1007.4
20260502205006 87 167 6.0 10.0 0.00 0.00 0.00 69 1007.5
20260502204527 88 175 6.0 13.0 0.00 0.00 0.00 69 1007.6
20260502204046 88 242 6.0 13.0 0.00 0.00 0.00 69 1007.8
20260502203605 88 176 5.0 11.0 0.00 0.00 0.00 69 1007.8
20260502203019 88 219 5.0 12.0 0.00 0.00 0.00 68 1007.8
20260502202536 88 173 6.0 12.0 0.00 0.00 0.00 68 1007.9
20260502202048 88 255 5.0 10.0 0.00 0.00 0.00 67 1008.0
20260502201608 88 213 4.0 11.0 0.00 0.00 0.00 67 1008.0
20260502201133 89 228 5.0 11.0 0.00 0.00 0.00 67 1008.0